[[{"header":{"parameterUnit":"m.s-1","parameterCategory":1,"la1":30.2991,"la2":30.254,"lo1":-89.0895,"lo2":-89.0444,"dy":0.0017,"dx":0.0017,"nx":28,"ny":28,"refTime":"2025-11-24T09:00:00:Z","depth":0,"parameterNumber":2,"parameterNumberName":"U-component_of_WINDS"},"data":[0,0,0,0,0,0,0,0,0,0,0,0,0,0,0,0,0,0,0,0,0,0,0,0,0,0,0,0,0,0,0,0,0,0,0,0,0,0,0,0,0,0,0,0,0,0,0,0,0,0,0,0,0,0,0,0,0,0,-2.571,-2.571,0,-2.5714,-2.5714,-2.5714,-2.5619,-2.5616,-2.5613,-2.5611,-2.562,-2.5623,-2.5626,0,0,0,0,0,0,0,0,0,0,0,0,0,-2.5622,-2.5624,-2.571,-2.571,-2.571,-2.5714,-2.5714,-2.5714,-2.5619,-2.5616,-2.5613,-2.561,-2.5619,-2.5623,-2.5626,0,0,0,0,0,0,0,0,0,0,0,0,0,-2.5647,-2.5624,-2.571,-2.5663,-2.5658,-2.5714,-2.5714,-2.5714,-2.562,-2.5616,-2.5612,-2.5608,-2.5618,-2.5622,-2.5626,-2.5729,0,0,-2.5638,-2.564,0,0,0,0,0,0,0,0,-2.5645,-2.565,-2.5669,-2.5666,-2.5661,-2.5662,-2.5687,-2.5719,-2.5621,-2.5635,-2.5611,-2.5606,-2.5638,-2.564,-2.5649,-2.5729,-2.573,-2.5639,-2.5641,-2.5643,-2.5644,0,0,0,0,0,0,0,-2.5644,-2.5649,-2.5712,-2.567,-2.5665,-2.5642,-2.5642,-2.5692,-2.5658,-2.5633,-2.5626,-2.5628,-2.5635,-2.5646,-2.5649,-2.573,-2.5639,-2.5642,-2.5645,-2.5646,-2.5895,-2.5899,0,0,0,0,0,0,-2.5648,-2.5648,-2.5711,-2.5712,-2.5643,-2.5647,-2.5646,-2.5666,-2.5657,-2.5652,-2.5631,-2.5623,-2.5641,-2.5644,-2.5649,-2.5768,-2.5643,-2.5647,-2.5649,-2.589,-2.5895,-2.59,0,0,0,0,0,0,-2.5646,-2.5654,-2.5711,-2.5678,-2.5684,-2.5653,-2.5675,-2.5668,-2.5679,-2.5656,-2.5649,-2.5648,-2.5638,-2.5643,-2.5709,-2.5767,-2.5648,-2.5652,-2.5885,-2.5892,-2.5898,-2.6009,0,0,0,0,0,0,-2.5644,-2.5654,-2.5692,-2.568,-2.5686,-2.5771,-2.5679,-2.5671,-2.5685,-2.5675,-2.567,-2.5666,-2.5635,-2.5704,-2.5713,-2.5771,-2.5655,-2.588,-2.5888,-2.5896,-2.6,-2.6018,-2.6033,0,0,0,0,0,-2.5641,-2.5724,-2.5694,-2.5703,-2.5732,-2.5774,-2.5778,-2.574,-2.569,-2.5729,-2.5714,-2.5666,-2.5759,-2.5712,-2.5721,-2.5781,-2.5876,-2.5886,-2.5895,-2.5992,-2.6014,-2.6033,0,0,0,0,0,0,-2.5745,-2.5722,-2.5689,-2.5769,-2.5774,-2.5758,-2.5805,-2.5765,-2.5785,-2.5775,-2.5728,-2.5728,-2.5802,-2.5798,-2.5745,-2.588,-2.5809,-2.5821,-2.588,-2.5901,-2.5917,-2.5917,-2.5659,0,0,0,0,0,-2.5778,-2.5813,-2.579,-2.5864,-2.5868,-2.5836,-2.5853,-2.5823,-2.5827,-2.583,-2.5819,-2.5826,-2.5857,-2.5879,-2.5906,-2.5998,-2.5996,-2.6044,-2.6061,-2.6075,-2.6086,-2.6135,-2.6156,-2.5931,-2.5931,-2.5931,0,0,-2.5845,-2.5836,-2.5861,-2.5885,-2.5885,-2.5923,-2.5839,-2.5883,-2.5912,-2.5837,-2.5898,-2.5891,-2.5896,-2.5976,-2.6011,-2.5975,-2.6148,-2.6087,-2.6099,-2.6102,-2.6147,-2.6169,-2.6188,-2.5937,-2.5936,-2.5935,0,0,-2.5987,-2.5983,-2.6044,-2.6046,-2.6047,-2.6026,-2.6041,-2.603,-2.6022,-2.6083,-2.6028,-2.6062,-2.6116,-2.6121,-2.6131,-2.6276,-2.6233,-2.6286,-2.6375,-2.6423,-2.6441,-2.6457,-2.6508,-2.6528,-2.6297,-2.6297,-2.6297,0,-2.607,-2.6125,-2.6081,-2.6129,-2.6141,-2.6074,-2.6136,-2.614,-2.6151,-2.6162,-2.6121,-2.6187,-2.6186,-2.6266,-2.6301,-2.6312,-2.6328,-2.6286,-2.6442,-2.6457,-2.6471,-2.652,-2.6539,-2.6304,-2.6303,-2.6302,-2.6302,0,-2.6228,-2.6267,-2.6316,-2.6326,-2.6344,-2.6399,-2.6365,-2.6388,-2.6357,-2.6341,-2.6404,-2.6399,-2.6424,-2.6441,-2.6412,-2.6518,-2.6496,-2.645,-2.6378,-2.6499,-2.6545,-2.6563,-2.6313,-2.6311,-2.6309,-2.6307,0,0,-2.6436,-2.6421,-2.644,-2.6444,-2.644,-2.647,-2.6522,-2.6545,-2.6567,-2.6577,-2.662,-2.6667,-2.6624,-2.6636,-2.6606,-2.6649,-2.6764,-2.6597,-2.6596,-2.6629,-2.6881,-2.6916,-2.6939,-2.6735,-2.6739,-2.6742,-2.6881,0,-2.6573,-2.666,-2.6622,-2.6714,-2.6749,-2.6686,-2.6732,-2.6735,-2.6721,-2.6751,-2.6735,-2.677,-2.671,-2.6716,-2.6756,-2.6742,-2.6814,-2.6731,-2.6776,-2.6779,-2.6777,-2.6962,-2.6999,-2.7131,-2.6898,-2.6901,-2.6904,0,-2.6746,-2.6761,-2.6856,-2.6846,-2.686,-2.6901,-2.6919,-2.6948,-2.6951,-2.6938,-2.6951,-2.6912,-2.6964,-2.6892,-2.6964,-2.6908,-2.6925,-2.6921,-2.6925,-2.6928,-2.6849,-2.6971,-2.7172,-2.7192,-2.6931,-2.6929,-2.6927,0,-2.6888,-2.6933,-2.6995,-2.7001,-2.6991,-2.7021,-2.7019,-2.7018,-2.7035,-2.7051,-2.7061,-2.7085,-2.7098,-2.7117,-2.7086,-2.7037,-2.7162,-2.7088,-2.7154,-2.7155,-2.7183,-2.7182,-2.7391,-2.7194,-2.7194,-2.7193,-2.7193,0,-2.7046,-2.7106,-2.7059,-2.7097,-2.7163,-2.712,-2.7187,-2.7178,-2.7178,-2.7214,-2.7162,-2.7197,-2.7154,-2.7186,-2.7162,-2.7225,-2.7232,-2.7223,-2.7216,-2.7228,-2.7229,-2.7238,-2.7228,-2.7198,-2.7197,-2.7196,-2.7195,0,-2.7216,-2.7186,-2.725,-2.7235,-2.7233,-2.7282,-2.727,-2.7306,-2.7288,-2.7335,-2.7343,-2.7316,-2.7351,-2.7322,-2.7356,-2.734,-2.7424,-2.7404,-2.7422,-2.7417,-2.7484,-2.7478,-2.7706,-2.7734,-2.7519,-2.7522,-2.7523,0,-2.7319,-2.7363,-2.7353,-2.7373,-2.7373,-2.7406,-2.7422,-2.7382,-2.7401,-2.7408,-2.7444,-2.7474,-2.7495,-2.7554,-2.7539,-2.7565,-2.7545,-2.7623,-2.7549,-2.7559,-2.7546,-2.7544,-2.7549,-2.7638,-2.7641,-2.7643,-2.7645,0,-2.7504,-2.7487,-2.7512,-2.7532,-2.7552,-2.7566,-2.7576,-2.7596,-2.7555,-2.7579,-2.7613,-2.763,-2.7665,-2.7696,-2.7716,-2.7715,-2.7674,-2.7668,-2.7685,-2.7697,-2.7706,-2.7702,-2.7463,-2.7663,-2.7661,-2.766,-2.7659,-2.7658,-2.7643,-2.768,-2.7679,-2.7708,-2.7711,-2.7722,-2.7754,-2.774,-2.7767,-2.7791,-2.7766,-2.7808,-2.7811,-2.7834,-2.7838,-2.7871,-2.7839,-2.7863,-2.7869,-2.7876,-2.7885,-2.7701,-2.7875,-2.7874,-2.7874,-2.7873,-2.7873,0,-2.7826,-2.7822,-2.7849,-2.7864,-2.7888,-2.7845,-2.7854,-2.7877,-2.7914,-2.7919,-2.7942,-2.7982,-2.8011,-2.7998,-2.8024,-2.8053,-2.8035,-2.8061,-2.8059,-2.8059,-2.7912,-2.7895,-2.8076,-2.8076,-2.8076,-2.8076,-2.8076,-2.8076,-2.7924,-2.7984,-2.7967,-2.8029,-2.8024,-2.8064,-2.8073,-2.8083,-2.8086,-2.8133,-2.8157,-2.8147,-2.8145,-2.8171,-2.8197,-2.8192,-2.8204,-2.8238,-2.8227,-2.809,-2.807,-2.8051,-2.8034,-2.8241,-2.8241,-2.8371,-2.8372,-2.8373]},{"header":{"parameterUnit":"m.s-1","parameterCategory":1,"la1":30.2991,"la2":30.254,"lo1":-89.0895,"lo2":-89.0444,"dy":0.0017,"dx":0.0017,"nx":28,"ny":28,"refTime":"2025-11-24T09:00:00:Z","depth":0,"parameterNumber":3,"parameterNumberName":"V-component_of_WINDS"},"data":[0,0,0,0,0,0,0,0,0,0,0,0,0,0,0,0,0,0,0,0,0,0,0,0,0,0,0,0,0,0,0,0,0,0,0,0,0,0,0,0,0,0,0,0,0,0,0,0,0,0,0,0,0,0,0,0,0,0,0.0166,0.0166,0,0.0151,0.0151,0.0151,0.0116,0.0115,0.0114,0.0114,0.01,0.01,0.01,0,0,0,0,0,0,0,0,0,0,0,0,0,0.0168,0.0168,0.0166,0.0166,0.0166,0.0151,0.0151,0.0151,0.0116,0.0115,0.0114,0.0113,0.01,0.01,0.01,0,0,0,0,0,0,0,0,0,0,0,0,0,0.0162,0.0168,0.0166,0.0147,0.0145,0.0151,0.0151,0.015,0.0116,0.0115,0.0114,0.0113,0.0099,0.01,0.01,0.0124,0,0,0.0102,0.0102,0,0,0,0,0,0,0,0,0.0162,0.0162,0.015,0.0148,0.0146,0.0134,0.0146,0.0142,0.0116,0.0127,0.0114,0.0113,0.0112,0.0111,0.0111,0.0124,0.0123,0.0102,0.0102,0.0102,0.0102,0,0,0,0,0,0,0,0.0163,0.0162,0.016,0.015,0.0148,0.014,0.0138,0.0145,0.0126,0.0126,0.0124,0.0122,0.0111,0.0111,0.011,0.0123,0.0102,0.0102,0.0102,0.0102,0.0156,0.0157,0,0,0,0,0,0,0.0166,0.0163,0.0161,0.016,0.0152,0.0141,0.0138,0.0139,0.0126,0.0123,0.0123,0.0121,0.011,0.011,0.011,0.0138,0.0102,0.0102,0.0103,0.0155,0.0156,0.0158,0,0,0,0,0,0,0.0166,0.0166,0.0161,0.0161,0.0159,0.0142,0.0143,0.0139,0.0139,0.0123,0.012,0.0126,0.011,0.0109,0.0121,0.0137,0.0103,0.0103,0.0154,0.0155,0.0157,0.0195,0,0,0,0,0,0,0.0166,0.0166,0.0174,0.0161,0.016,0.0173,0.0144,0.014,0.014,0.0136,0.0125,0.0123,0.0109,0.0121,0.0122,0.0137,0.0103,0.0152,0.0154,0.0156,0.0192,0.0198,0.0202,0,0,0,0,0,0.0166,0.0186,0.0175,0.0175,0.017,0.0174,0.0173,0.0156,0.0141,0.015,0.014,0.0123,0.0135,0.0122,0.0123,0.0139,0.0151,0.0154,0.0156,0.019,0.0196,0.0202,0,0,0,0,0,0,0.0202,0.0184,0.0172,0.0187,0.0182,0.0168,0.0178,0.0164,0.0163,0.016,0.0139,0.0137,0.0152,0.0147,0.0133,0.0162,0.014,0.0143,0.0166,0.0172,0.0177,0.0178,0.0104,0,0,0,0,0,0.0212,0.0216,0.02,0.0215,0.0213,0.0196,0.0197,0.0185,0.0179,0.0177,0.0168,0.0163,0.0166,0.0168,0.017,0.0191,0.0189,0.0202,0.0207,0.0211,0.0215,0.0226,0.0232,0.0166,0.0166,0.0166,0,0,0.0232,0.0222,0.0226,0.0222,0.0217,0.0223,0.0195,0.0202,0.0206,0.0178,0.0189,0.0182,0.0176,0.0193,0.02,0.0188,0.0232,0.0215,0.0218,0.0219,0.023,0.0236,0.0242,0.0168,0.0168,0.0167,0,0,0.0272,0.0265,0.0277,0.0273,0.0265,0.0253,0.0256,0.0244,0.0239,0.0249,0.0229,0.0234,0.0238,0.0235,0.0234,0.0274,0.0258,0.0275,0.0302,0.0314,0.0319,0.0323,0.0339,0.0344,0.0278,0.0278,0.0278,0,0.0299,0.0305,0.0286,0.0294,0.0294,0.0268,0.0281,0.0278,0.0271,0.0272,0.0259,0.0265,0.0259,0.0275,0.0285,0.0285,0.0288,0.0276,0.032,0.0324,0.0328,0.0342,0.0348,0.028,0.028,0.0279,0.0279,0,0.0339,0.0344,0.0355,0.0349,0.035,0.0361,0.0344,0.0347,0.0334,0.0324,0.0336,0.0328,0.0328,0.033,0.0318,0.0345,0.0339,0.0323,0.0301,0.0337,0.035,0.0355,0.0283,0.0282,0.0281,0.0281,0,0,0.0402,0.0385,0.0389,0.0387,0.0376,0.038,0.039,0.039,0.0394,0.039,0.0399,0.0404,0.0389,0.0388,0.0375,0.0385,0.0419,0.0368,0.0368,0.0379,0.045,0.0462,0.0469,0.0408,0.0409,0.041,0.045,0,0.044,0.0456,0.0439,0.0459,0.0464,0.044,0.0449,0.0444,0.0435,0.0439,0.0429,0.0434,0.0414,0.0413,0.0422,0.0413,0.0433,0.0409,0.0417,0.0418,0.0421,0.0476,0.0489,0.0528,0.0455,0.0456,0.0457,0,0.0487,0.0486,0.0506,0.0495,0.0497,0.0505,0.0504,0.0507,0.0501,0.0494,0.0493,0.0478,0.0488,0.0466,0.048,0.0464,0.0466,0.0462,0.0463,0.0465,0.044,0.048,0.054,0.0546,0.0465,0.0464,0.0463,0,0.0533,0.0536,0.0548,0.0547,0.0534,0.054,0.0536,0.0528,0.053,0.0529,0.0529,0.053,0.053,0.0531,0.0517,0.0502,0.0533,0.0509,0.0529,0.0529,0.0538,0.0538,0.0601,0.0537,0.0537,0.0537,0.0537,0,0.0579,0.0592,0.0569,0.0577,0.0592,0.0572,0.0588,0.058,0.0574,0.0581,0.056,0.0567,0.0547,0.0552,0.054,0.0555,0.0555,0.055,0.0547,0.0553,0.0554,0.0555,0.0552,0.0538,0.0538,0.0538,0.0537,0,0.0632,0.0617,0.063,0.0616,0.0613,0.0625,0.0614,0.0621,0.0611,0.062,0.0621,0.0605,0.061,0.0595,0.0598,0.059,0.0612,0.0604,0.0614,0.0612,0.0633,0.0631,0.07,0.0708,0.0638,0.0639,0.0639,0,0.0663,0.0673,0.0661,0.0664,0.066,0.0665,0.0666,0.0647,0.0649,0.0644,0.0652,0.0655,0.0657,0.0666,0.0655,0.0657,0.065,0.0674,0.065,0.0656,0.0652,0.0652,0.0654,0.0679,0.068,0.0681,0.0681,0,0.072,0.0712,0.0714,0.0714,0.0715,0.0714,0.0712,0.0716,0.0696,0.0699,0.0704,0.0705,0.0708,0.0712,0.0712,0.0707,0.0692,0.0689,0.0693,0.07,0.0706,0.0704,0.0628,0.0687,0.0687,0.0686,0.0686,0.0686,0.0764,0.0772,0.0765,0.0768,0.0764,0.0763,0.0769,0.076,0.0763,0.0764,0.0752,0.076,0.0754,0.0753,0.075,0.0756,0.0745,0.0752,0.0754,0.0756,0.076,0.0704,0.0756,0.0755,0.0755,0.0755,0.0755,0,0.0821,0.0815,0.0818,0.0815,0.0818,0.0802,0.0799,0.0803,0.0809,0.0805,0.0807,0.0813,0.0817,0.0806,0.0809,0.0816,0.0809,0.0817,0.0817,0.0817,0.0769,0.0765,0.0823,0.0823,0.0823,0.0823,0.0823,0.0823,0.0851,0.0864,0.0856,0.0867,0.0861,0.0868,0.0868,0.0866,0.0863,0.0871,0.0873,0.0866,0.086,0.0862,0.0865,0.0862,0.0865,0.0876,0.0871,0.0826,0.082,0.0814,0.081,0.0876,0.0876,0.0918,0.0918,0.0918]}]]